Probability
3 2 1 2 2 1 1 2 3 2 1 1 1 1 0 0 0 0 0 0 0 0 0 0 0 0 0 0 0 0 0 0 1 3 5 5 3 2 1 2 4 5 5
5 3 2 2 1 0 1 2 2 1 1 1 1 0 0 0 0 0 0 0 0 0 0 0 0 0 0 0 0 0 0 0 1 3 5 5 3 1 1 2 3 4 5
6 4 1 1 0 0 0 1 1 0 0 0 0 0 0 0 0 0 0 0 0 0 0 0 0 0 0 0 0 0 0 0 0 1 3 3 2 1 0 1 1 3 4
3 2 0 0 0 0 0 0 0 0 0 0 0 0 0 0 0 0 0 0 0 0 0 0 0 0 0 0 0 0 0 0 0 0 1 1 1 0 0 0 0 1 2
1 0 0 0 0 0 0 0 0 0 0 0 0 0 0 0 0 0 0 0 0 0 0 0 0 0 0 0 0 0 0 0 0 0 0 0 0 0 0 0 0 0 1
0 0 0 0 0 0 0 0 0 0 0 0 0 0 0 0 0 0 0 0 0 0 0 0 0 0 0 0 0 0 0 0 0 0 0 0 0 0 0 0 0 0 0
0 0 0 0 0 0 0 0 0 0 0 0 0 0 0 0 0 0 0 0 0 0 0 0 0 0 0 0 0 0 0 0 0 0 0 0 0 0 0 0 0 0 0
0 0 0 0 0 0 0 0 0 0 0 0 0 0 0 0 0 0 0 0 0 0 0 0 0 0 0 0 0 0 0 0 0 0 0 0 0 0 0 0 0 0 0
0 0 0 0 0 0 0 0 0 0 0 0 0 0 0 0 0 0 0 0 0 0 0 0 0 0 0 0 0 0 0 0 0 0 0 0 0 0 0 0 0 0 0
0 0 0 0 0 0 0 0 0 0 0 0 0 0 0 0 0 0 0 0 0 0 0 0 0 0 0 0 0 0 0 0 0 0 0 0 0 0 0 0 0 0 0
0 0 0 0 0 0 0 0 0 0 0 0 0 0 0 0 0 0 0 0 0 0 0 0 0 0 0 0 0 0 0 0 0 0 0 0 0 0 0 0 0 0 0
0 0 0 0 0 0 0 0 0 0 0 0 0 0 0 0 0 0 0 0 0 0 0 0 0 0 0 0 0 0 0 0 0 0 0 0 0 0 0 0 0 0 0
0 0 0 0 0 0 0 0 0 0 0 0 0 0 0 0 0 0 0 0 0 0 0 0 0 0 0 0 0 0 0 0 0 0 0 0 0 0 0 0 0 0 0
0 0 0 0 0 0 0 0 0 0 0 0 0 0 0 0 0 0 0 0 0 0 0 0 0 0 0 0 0 0 0 0 0 0 0 0 0 0 0 0 0 0 0
0 0 0 0 0 0 0 0 0 0 0 0 0 0 0 0 0 0 0 0 0 0 0 0 0 0 0 0 0 0 0 0 0 0 0 0 0 0 0 0 0 0 0
0 0 0 0 0 0 0 0 0 0 0 0 0 0 0 0 0 0 0 0 0 0 0 0 0 0 0 0 0 0 0 0 0 0 0 0 0 0 0 0 0 0 0
0 0 0 0 0 0 0 0 0 0 0 0 0 0 0 0 0 0 0 0 0 0 0 0 0 0 0 0 0 0 0 0 0 0 0 0 0 0 0 0 0 0 0
0 0 0 0 0 0 0 0 0 0 0 0 0 0 0 0 0 0 0 0 0 0 0 0 0 0 0 0 0 0 0 0 0 0 0 0 0 0 0 0 0 0 0
0 0 0 0 0 0 0 0 0 0 0 0 0 0 0 0 0 0 0 0 0 0 0 0 0 0 0 0 0 0 0 0 0 0 0 0 0 0 0 0 0 0 0
0 0 0 0 0 0 0 0 0 0 0 0 0 0 0 0 0 0 0 0 0 0 0 0 0 0 0 0 0 0 0 0 0 0 0 0 0 0 0 0 0 0 0
0 0 0 0 0 0 0 0 0 0 0 0 0 0 0 0 0 0 0 0 0 0 0 0 0 0 0 0 0 0 0 0 0 0 0 0 0 0 0 0 0 0 0
0 0 0 0 0 0 0 0 0 0 0 0 0 0 0 0 0 0 0 0 0 0 0 0 0 0 0 0 0 0 0 0 0 0 0 0 0 0 0 0 0 0 0
0 0 0 0 0 0 0 0 0 0 0 0 0 0 0 0 0 0 0 0 0 0 0 0 0 0 0 0 0 0 0 0 0 0 0 0 0 0 0 0 0 0 0
0 0 0 0 0 0 0 0 0 0 0 0 0 0 0 0 0 0 0 0 0 0 0 0 0 0 0 0 0 0 0 0 0 0 0 0 0 0 0 0 0 0 0
0 0 0 0 0 0 0 0 0 0 0 0 0 0 0 0 0 0 0 0 0 0 0 0 0 0 0 0 0 0 0 0 0 0 0 0 0 0 0 0 0 0 0
0 0 0 0 0 0 0 0 0 0 0 0 0 0 0 0 0 0 0 0 0 0 0 0 0 0 0 0 0 0 0 0 0 0 0 0 0 0 0 0 0 0 0
Wind_Speed
1 1 0 0 0 1 2 2 2 2 2 2 1 1 0 0 0 0 0 0 0 0 0 1 1 1 1 2 2 2 2 2 2 2 3 4 5 7 7 7 7 8 9
1 1 1 1 1 1 1 2 1 1 1 1 1 1 1 1 1 1 1 1 1 1 1 1 1 1 1 2 2 1 1 1 1 2 1 2 2 4 6 5 6 7 7
2 2 2 2 2 2 2 1 1 1 1 1 1 1 2 2 1 2 2 2 2 2 2 2 2 2 2 2 2 2 2 2 2 2 2 2 3 2 2 4 5 5 6
2 3 3 2 2 2 1 1 1 1 1 1 1 1 1 1 2 2 2 3 3 3 3 2 2 2 2 3 3 2 2 3 2 2 2 3 2 2 2 2 2 5 6
2 3 2 2 2 1 1 1 0 1 1 0 1 1 1 2 2 2 3 3 3 3 3 3 2 3 3 3 3 2 3 3 3 2 2 2 2 2 2 3 2 2 3
1 1 1 1 0 0 0 1 1 1 2 1 0 1 3 3 3 3 3 3 3 3 4 3 3 3 3 4 4 3 4 3 3 3 2 2 2 2 2 3 3 3 2
1 1 1 0 0 0 0 1 1 2 3 2 2 2 3 3 4 4 4 4 3 3 4 3 3 4 4 4 4 4 4 4 4 4 3 3 3 2 2 2 2 3 2
1 1 1 1 0 1 1 1 2 3 3 3 4 3 3 3 3 4 3 4 4 4 5 5 4 5 5 5 4 4 5 4 5 5 4 3 4 3 3 3 2 2 2
1 1 0 0 0 1 1 2 2 3 4 3 4 4 3 3 4 4 4 4 4 5 5 5 5 5 5 5 4 4 5 4 5 5 5 4 4 3 3 3 3 3 2
1 1 1 1 1 1 2 2 2 3 3 3 3 3 3 3 3 4 5 5 5 5 5 6 6 6 6 5 5 5 5 5 5 4 5 5 4 3 3 3 3 3 3
1 0 1 1 1 2 2 3 3 3 3 4 4 4 4 4 4 4 5 5 5 5 6 6 6 7 7 6 5 6 6 6 6 6 6 7 5 4 4 4 3 3 3
1 0 0 1 2 3 3 3 3 4 4 4 4 4 5 5 5 6 6 5 6 6 6 6 6 7 7 6 6 7 7 7 8 7 7 8 6 6 5 4 5 4 4
1 0 1 2 3 3 4 4 4 4 4 4 5 5 5 6 6 7 7 6 6 7 7 6 7 7 7 7 7 7 8 8 8 8 8 8 7 7 6 6 6 5 4
1 1 2 3 3 4 4 4 5 5 5 5 5 6 6 6 7 7 7 7 7 7 7 7 7 8 8 8 8 7 8 8 8 8 8 8 8 9 8 7 7 6 5
3 3 3 4 4 4 5 5 5 5 5 5 6 6 7 7 7 7 7 7 7 8 7 7 8 8 7 7 8 7 8 8 8 8 8 9 10 11 9 7 7 7 6
5 5 4 4 5 5 5 5 5 6 5 6 7 7 7 7 8 8 8 8 8 8 7 8 8 8 8 9 12 10 8 8 9 9 9 9 11 12 13 14 13 12 9
6 6 5 5 5 6 5 5 6 5 5 6 7 7 7 8 8 9 8 8 8 7 8 8 8 9 10 13 14 14 9 8 9 9 8 8 8 10 9 11 13 14 14
6 6 5 5 5 5 5 5 5 5 6 7 7 8 8 9 9 9 9 8 7 7 7 8 8 9 10 13 12 13 9 8 9 9 10 10 9 9 9 9 9 9 10
6 5 5 4 4 5 5 5 6 6 6 7 8 8 8 9 9 9 9 8 7 8 7 8 8 9 10 12 12 10 6 7 9 9 9 10 10 11 11 9 9 8 7
5 4 4 3 5 5 4 4 6 6 7 8 8 8 8 8 9 9 9 7 7 8 8 8 8 8 9 11 11 8 4 6 7 7 8 11 12 12 12 10 9 9 8
5 4 4 4 5 4 3 5 5 7 7 7 8 8 8 8 9 8 7 8 7 7 7 8 8 8 8 9 10 9 5 6 6 6 5 6 10 12 12 11 9 10 8
5 4 4 5 5 4 3 5 6 7 6 7 8 8 8 8 7 7 8 7 7 7 7 7 8 6 6 7 8 9 8 7 6 6 5 5 7 9 10 9 9 10 8
5 4 4 5 5 4 3 5 6 6 6 7 8 8 9 8 7 7 8 7 6 5 6 6 6 7 5 5 8 8 8 7 6 5 6 6 7 7 6 9 10 9 6
5 4 4 5 5 4 4 5 6 5 6 7 8 7 8 8 8 6 5 6 6 6 6 6 6 6 6 5 4 4 4 5 5 4 4 5 6 5 5 5 6 6 6
4 4 4 5 6 5 5 5 5 4 5 7 7 7 7 7 7 7 6 6 6 6 6 6 6 6 7 6 7 6 5 4 4 3 2 2 2 3 3 4 4 5 5
4 4 5 5 6 5 5 5 4 4 5 6 6 6 6 6 6 7 8 7 8 10 10 10 8 7 9 11 11 9 8 7 6 3 2 3 3 4 4 4 4 5 6
Wind_Direction
183 153 222 178 104 111 113 123 128 129 121 113 119 117 153 272 317 298 340 343 326 305 229 265 279 268 250 260 253 232 247 241 229 245 265 262 247 241 235 228 225 225 222
340 313 244 241 233 199 147 139 147 155 141 133 148 160 167 243 258 288 301 290 291 286 263 247 260 263 261 278 263 208 223 249 217 214 256 286 290 257 235 223 223 227 221
242 255 233 228 226 223 202 173 192 186 162 138 96 65 40 7 344 320 309 302 301 295 285 266 257 260 246 263 268 225 204 231 247 213 203 227 251 290 274 230 223 221 221
246 238 225 231 236 235 206 183 201 196 197 155 143 151 182 240 252 264 282 300 299 295 289 281 269 259 250 255 261 240 218 213 236 235 224 230 228 246 291 289 235 224 224
242 231 230 226 222 208 193 199 117 343 336 56 174 193 239 247 271 285 294 299 302 298 293 282 268 261 254 253 252 241 229 219 221 216 224 234 240 234 240 273 284 258 233
244 251 257 220 188 145 124 82 52 339 339 337 289 230 249 262 281 288 289 291 294 294 292 286 270 263 255 250 248 238 231 228 229 224 216 215 215 218 221 249 268 264 251
235 230 226 179 263 40 10 20 6 313 315 313 294 269 259 259 262 271 274 282 286 284 285 286 273 267 258 254 248 242 238 227 223 223 222 224 227 216 209 236 260 257 269
222 213 213 200 245 308 325 319 306 296 305 305 298 292 280 268 266 267 266 266 262 266 274 276 271 268 267 264 251 244 243 233 228 230 223 222 228 221 214 208 228 256 255
200 195 170 45 305 322 325 313 303 301 303 301 301 296 290 279 276 279 272 268 268 274 278 278 277 274 270 265 255 246 246 239 232 232 227 227 229 219 222 215 211 219 239
176 96 28 353 337 336 330 330 309 295 300 310 307 306 300 292 284 285 283 278 277 277 285 283 280 277 273 267 256 252 249 243 240 233 229 228 230 224 221 219 218 216 219
169 194 337 348 356 352 343 335 331 327 323 321 316 315 309 307 305 294 288 286 285 286 283 280 279 278 276 270 259 255 252 245 245 240 231 232 225 221 220 215 213 217 215
153 173 342 357 354 343 333 329 323 321 313 312 312 308 307 310 306 296 291 289 286 284 281 279 278 276 274 267 260 261 258 246 244 241 234 236 228 221 217 212 213 214 214
147 1 343 333 321 318 317 316 315 312 311 314 313 310 307 304 298 293 292 291 288 287 286 281 278 278 276 270 262 258 257 249 246 243 237 237 228 226 219 213 214 214 215
236 275 292 295 300 303 304 306 306 305 308 312 309 303 298 293 290 291 291 290 287 286 284 281 277 276 275 272 266 260 257 253 249 244 239 237 229 226 222 216 213 209 212
258 264 269 279 289 295 297 296 294 298 304 307 302 294 293 293 293 293 292 292 289 288 283 282 282 278 275 267 261 255 257 252 252 249 243 240 237 233 224 220 211 204 205
256 264 271 277 282 284 286 290 290 294 301 298 294 295 300 302 301 298 296 295 293 291 288 284 283 281 277 274 272 268 261 254 250 250 247 246 247 245 236 227 216 204 203
252 260 264 263 268 272 274 278 282 296 302 297 297 299 302 303 302 302 302 297 294 291 291 287 284 282 279 275 273 270 263 254 250 247 246 249 244 235 235 233 227 217 213
248 255 256 263 270 273 277 279 288 296 297 297 298 301 303 303 304 303 299 295 291 292 289 287 286 283 282 282 279 275 267 256 250 246 242 242 246 238 228 230 228 223 219
234 241 245 250 266 278 281 290 294 298 299 299 301 303 304 305 306 303 298 294 293 295 291 287 286 285 287 286 284 275 263 256 254 248 243 239 241 237 226 225 224 222 224
236 243 255 259 270 276 284 286 289 297 296 297 299 301 300 300 299 296 294 291 290 289 291 289 285 282 285 288 288 280 258 257 258 254 247 239 236 233 221 219 216 217 217
238 243 248 255 262 274 283 279 286 285 286 295 299 301 299 296 292 290 289 292 292 293 292 292 291 287 283 288 290 283 257 250 254 254 251 244 231 227 220 213 214 215 204
244 243 244 259 269 272 264 274 279 279 291 298 301 302 301 299 303 299 298 296 294 296 299 300 302 296 289 285 290 287 269 249 245 252 250 244 232 225 219 215 215 206 195
237 237 235 260 276 271 248 263 273 288 300 304 304 304 306 303 299 298 301 304 298 294 296 298 299 301 300 293 290 292 286 270 249 250 249 240 227 221 220 219 209 198 192
234 233 235 256 272 273 261 255 275 291 299 302 305 307 310 310 309 303 296 295 295 296 296 296 298 300 300 300 305 304 299 288 268 258 249 234 220 212 210 208 204 202 196
232 224 227 246 261 271 272 272 277 291 298 301 304 308 308 306 309 308 297 291 280 268 275 284 283 291 297 295 297 294 290 286 278 274 246 227 203 198 199 197 192 193 191
224 230 238 245 259 268 275 279 279 282 292 302 307 307 308 310 310 313 313 296 281 287 275 262 264 270 268 284 294 297 288 278 270 249 235 231 218 210 204 200 196 195 196